Regional Weather Roundup
Issued by NWS Goodland, KS

Home | Current Version | Previous Version | Graphics & Text | Print | Product List | Glossary On
Versions: 1 2 3 4 5 6 7 8 9 10 11 12 13 14 15 16 17 18 19 20 21 22 23 24 25 26 27 28 29 30 31 32 33 34 35 36 37 38 39 40 41 42 43 44 45 46 47 48 49 50
000
ASUS43 KGLD 221808
RWRGLD

GOODLAND FORECAST AREA HOURLY WEATHER ROUNDUP
NATIONAL WEATHER SERVICE GOODLAND KS
1200 PM MDT WED OCT 22 2014

...OFFICIAL OBSERVATIONS...

CITY           SKY/WX    TMP DP  RH WIND       PRES   REMARKS
GOODLAND KS    MOSUNNY   69  47  45 N16       30.06R
HILL CITY KS   PTSUNNY   69  55  60 S12       30.01F
IMPERIAL NEB   MOSUNNY   69  49  48 N7        30.04S
MCCOOK NEB     CLOUDY    63  51  65 E3        30.01F
AKRON CO       SUNNY     64  39  39 N9G18     30.10F
BURLINGTON CO  SUNNY     69  44  40 NE13      30.08S
LIMON CO       SUNNY     65  38  36 NE9       30.13S
$$

...UNOFFICIAL OBSERVATIONS...

CITY           SKY/WX    TMP DP  RH WIND       PRES   REMARKS
COLBY KS       MOSUNNY   66  54  63 CALM      30.03F
GOVE KS          N/A     70  32  24 MISG        N/A
NORTON KS      LGT RAIN  61  55  82 SW5       30.01S
SHARON SPRINGS   N/A     66  52  60 N10         N/A
TRENTON NEB      N/A     65  32  29 N10         N/A
KIT CARSON CO    N/A     68  45  43 N9G20       N/A
YUMA CO          N/A     67  39  35 N12G18      N/A
$$



USA.gov is the U.S. government's official web portal to all federal, state and local government web resources and services.